CW7229 Weather Reports


Display with metric or nautical units.
time (UTC)temp
F
wind
direction
speed
MPH
gust
MPH
rain 1hr
in
rain 24hr
in
rain mn
in
humidity
%
barometer
mb
20260509190116 56 128 2.0 4.0 0.00 0.00 0.00 36 1015.7
20260509183115 57 173 4.0 8.0 0.00 0.00 0.00 35 1015.7
20260509180135 58 127 4.0 8.0 0.00 0.00 0.00 33 1015.6
20260509173116 59 149 5.0 8.0 0.00 0.00 0.00 31 1015.6
20260509170134 60 119 1.0 7.0 0.00 0.00 0.00 30 1015.6
20260509160115 62 123 5.0 8.0 0.00 0.00 0.00 29 1015.5
20260509153115 61 177 4.0 8.0 0.00 0.00 0.00 29 1016.6
20260509150115 61 196 5.0 6.0 0.00 0.00 0.00 29 1016.6
20260509140115 62 120 5.0 8.0 0.00 0.00 0.00 30 1016.6
20260509133115 61 95 4.0 6.0 0.00 0.00 0.00 29 1017.6
20260509123115 60 114 4.0 7.0 0.00 0.00 0.00 33 1017.6
20260509113115 61 221 3.0 8.0 0.00 0.00 0.00 35 1017.6
20260509110115 60 133 4.0 6.0 0.00 0.00 0.00 36 1018.6
20260509103115 60 142 3.0 7.0 0.00 0.00 0.00 36 1018.6
20260509100115 59 127 4.0 6.0 0.00 0.00 0.00 36 1018.6
20260509093115 59 139 4.0 5.0 0.00 0.00 0.00 37 1018.6
20260509083115 56 213 4.0 6.0 0.00 0.00 0.00 42 1018.7
20260509070115 53 128 0.0 3.0 0.00 0.00 0.00 54 1018.8
20260509063115 52 116 2.0 6.0 0.00 0.00 0.00 56 1018.8
20260509060135 52 120 0.0 2.0 0.00 0.00 0.00 62 1018.8
20260509053115 51 120 0.0 3.0 0.00 0.00 0.00 68 1018.8
20260509050134 50 120 0.0 0.0 0.00 0.00 0.00 68 1018.8
20260509043115 50 120 0.0 0.0 0.00 0.00 0.00 67 1017.8
20260509040115 49 123 0.0 0.0 0.00 0.00 0.00 67 1017.8
20260509033115 49 124 0.0 0.0 0.00 0.00 0.00 66 1017.9
20260509023115 49 124 0.0 0.0 0.00 0.00 0.00 64 1018.9
20260509020116 49 124 0.0 0.0 0.00 0.00 0.00 64 1018.9
20260509013115 49 124 0.0 0.0 0.00 0.00 0.00 63 1018.9
20260509010115 50 124 0.0 0.0 0.00 0.00 0.00 62 1018.9
20260509003115 50 124 0.0 0.0 0.00 0.00 0.00 61 1018.9
20260509000115 50 124 0.0 0.0 0.00 0.00 0.00 60 1018.9
20260508233115 50 124 0.0 0.0 0.00 0.00 0.00 59 1018.8
20260508230115 50 124 0.0 0.0 0.00 0.00 0.00 58 1018.8
20260508223115 50 130 0.0 0.0 0.00 0.00 0.00 57 1018.8
20260508220115 50 130 0.0 0.0 0.00 0.00 0.00 55 1018.8
20260508213115 51 130 0.0 0.0 0.00 0.00 0.00 54 1018.8
20260508210115 51 130 0.0 0.0 0.00 0.00 0.00 53 1018.8
20260508200115 51 130 0.0 0.0 0.00 0.00 0.00 50 1018.8
20260508193115 52 135 2.0 4.0 0.00 0.00 0.00 50 1017.8